Regional Weather Roundup
Issued by NWS

Home | Current Version | Previous Version | Text Only | Print | Product List | Glossary Off
Versions: 1 2 3 4 5 6 7 8 9 10 11 12 13 14 15 16 17 18 19 20 21 22 23 24 25 26 27 28 29 30 31 32 33 34 35 36 37 38 39 40 41 42 43 44 45 46 47 48 49 50

000
ASUS43 KLMK 171502
RWRKY
KENTUCKY REGIONAL WEATHER ROUNDUP
NATIONAL WEATHER SERVICE LOUISVILLE KY
1000 AM EST FRI NOV 17 2017

NOTE "FAIR" INDICATES FEW OR NO CLOUDS BELOW 12,000 FEET
WITH NO SIGNIFICANT WEATHER AND/OR OBSTRUCTIONS TO VISIBILITY.

KYZ001>023-026-027-061>063-070>075-171600-
WESTERN AND SOUTH CENTRAL KENTUCKY

CITY           SKY/WX    TMP DP  RH WIND       PRES   REMARKS
PADUCAH        PTSUNNY   45  37  73 SE8       30.12S
HENDERSON      FOG       36  36 100 VRB6      30.16F VSB 3/4 WCI  31
OWENSBORO      CLOUDY    37  35  92 SE12      30.17F FOG     WCI  29
HOPKINSVILLE   CLOUDY    36  36 100 E13       30.14F FOG     WCI  28
BOWLING GREEN  CLOUDY    38  38 100 E9        30.20F FOG     WCI  31
GLASGOW        NOT AVBL
$$

KYZ024-025-028>034-038-045-046-053-171600-
NORTH CENTRAL KENTUCKY

CITY           SKY/WX    TMP DP  RH WIND       PRES   REMARKS
LOUISVILLE/SDF CLOUDY    37  31  78 E9        30.22F WCI  30
LOUISVILLE/LOU CLOUDY    36  33  89 E9        30.23F WCI  29
FORT KNOX      CLOUDY    35  32  87 SE10      30.19S WCI  27
$$

KYZ035>037-039>044-047>052-055>060-089>105-171600-
NORTHEAST KENTUCKY

CITY           SKY/WX    TMP DP  RH WIND       PRES   REMARKS
LEXINGTON      SUNNY     38  30  73 SE8       30.22F WCI  32
COVINGTON      CLOUDY    37  32  82 SE10      30.22F WCI  30
FRANKFORT      MOSUNNY   37  30  75 SE7       30.22F WCI  32
$$

KYZ054-064>069-076>088-106>120-171600-
SOUTHEAST KENTUCKY

CITY           SKY/WX    TMP DP  RH WIND       PRES   REMARKS
JACKSON        CLOUDY    37  29  72 SE3       30.23S
LONDON         SUNNY     39  33  79 E6        30.21F WCI  35
SOMERSET       CLOUDY    36  32  87 E5        30.24F WCI  32
MIDDLESBORO    SUNNY     42  37  80 CALM      30.23F
MONTICELLO     CLOUDY    40  38  93 VRB5      30.24F
$$





USA.gov is the U.S. government's official web portal to all federal, state and local government web resources and services.